This is the latest recevied weather packets stored in our database for station/object DG7YEO-13. If no packets are shown the sender has not sent any weather packets the latest 10 day(s).
| Time | Temp. | Humidity | Pressure | Rain* | Wind** | Luminosity | Snow |
|---|---|---|---|---|---|---|---|
| 1788017525 | 23.89° C | 59% | 1009 hPa | 0 mm | - | - | - |
| 1788016625 | 23.89° C | 58% | 1009.1 hPa | 0 mm | - | - | - |
| 1788015725 | 23.89° C | 58% | 1009.1 hPa | 0 mm | - | - | - |
| 1788014825 | 24.44° C | 58% | 1009.3 hPa | 0 mm | - | - | - |
| 1788013925 | 24.44° C | 58% | 1009.4 hPa | 0 mm | - | - | - |
| 1788013025 | 24.44° C | 59% | 1009.5 hPa | 0 mm | - | - | - |
| 1788012125 | 24.44° C | 57% | 1009.6 hPa | 0 mm | - | - | - |
| 1788011225 | 24.44° C | 57% | 1009.7 hPa | 0 mm | - | - | - |
| 1788010325 | 24.44° C | 58% | 1009.8 hPa | 0 mm | - | - | - |
| 1788009425 | 24.44° C | 56% | 1009.9 hPa | 0 mm | - | - | - |
| 1788008525 | 24.44° C | 56% | 1010 hPa | 0 mm | - | - | - |
| 1788007625 | 23.89° C | 57% | 1010 hPa | 0 mm | - | - | - |
| 1788006725 | 23.89° C | 56% | 1010 hPa | 0 mm | - | - | - |
| 1788005824 | 23.89° C | 56% | 1010 hPa | 0 mm | - | - | - |
| 1788004925 | 24.44° C | 59% | 1010 hPa | 0 mm | - | - | - |
| 1788004025 | 23.33° C | 61% | 1010.1 hPa | 0 mm | - | - | - |
| 1788003125 | 23.33° C | 61% | 1010.2 hPa | 0 mm | - | - | - |
| 1788002225 | 23.33° C | 62% | 1010.3 hPa | 0 mm | - | - | - |
| 1788001324 | 23.33° C | 62% | 1010.3 hPa | 0 mm | - | - | - |
| 1788000425 | 23.33° C | 62% | 1010.3 hPa | 0 mm | - | - | - |
| 1787999525 | 23.33° C | 63% | 1010.3 hPa | 0 mm | - | - | - |
| 1787998625 | 22.78° C | 65% | 1010.4 hPa | 0 mm | - | - | - |
| 1787997725 | 21.67° C | 68% | 1010.5 hPa | 0 mm | - | - | - |
| 1787996825 | 21.67° C | 69% | 1010.5 hPa | 0 mm | - | - | - |
| 1787995925 | 21.11° C | 70% | 1010.5 hPa | 0 mm | - | - | - |
* Rain latest hour (hover to see other rain measurements)
** Current wind speed in m/s (hover to see current wind gust speed)